TimePDT,TemperatureF,Dew PointF,Humidity,Sea Level PressureIn,VisibilityMPH,Wind Direction,Wind SpeedMPH,Gust SpeedMPH,PrecipitationIn,Events,Conditions,WindDirDegrees,DateUTC
12:58 AM,28.4,22.1,77,30.04,10.0,SW,11.5,-,N/A,,Overcast,220,2013-03-18 07:58:00
1:32 AM,28.4,23.0,80,29.98,10.0,SSW,10.4,-,N/A,,Clear,210,2013-03-18 08:32:00
1:40 AM,28.4,23.0,80,29.98,10.0,SSW,10.4,-,N/A,,Clear,210,2013-03-18 08:40:00
1:58 AM,28.6,23.0,80,30.04,10.0,SSW,16.1,-,0.00,,Clear,210,2013-03-18 08:58:00
2:58 AM,27.7,22.8,82,30.04,10.0,SSW,15.0,-,N/A,,Mostly Cloudy,210,2013-03-18 09:58:00
3:58 AM,26.2,22.5,86,30.04,10.0,SSW,8.1,-,N/A,,Mostly Cloudy,200,2013-03-18 10:58:00
4:56 AM,24.8,23.0,93,29.97,10.0,SSW,10.4,-,N/A,,Clear,210,2013-03-18 11:56:00
4:58 AM,24.8,23.0,93,30.04,10.0,SSW,10.4,-,N/A,,Clear,210,2013-03-18 11:58:00
5:26 AM,24.8,23.0,93,29.97,10.0,SSW,9.2,-,N/A,,Clear,200,2013-03-18 12:26:00
5:40 AM,24.8,23.0,93,29.97,10.0,South,8.1,-,N/A,,Clear,190,2013-03-18 12:40:00
5:41 AM,24.8,23.0,93,29.97,10.0,South,8.1,-,N/A,,Clear,190,2013-03-18 12:41:00
5:58 AM,25.7,23.0,89,30.06,10.0,SSW,9.2,-,0.00,,Clear,200,2013-03-18 12:58:00
6:49 AM,26.6,23.0,86,29.98,10.0,SSW,10.4,-,N/A,,Partly Cloudy,200,2013-03-18 13:49:00
6:58 AM,26.2,23.2,88,30.06,10.0,SSW,10.4,-,0.00,,Clear,200,2013-03-18 13:58:00
7:20 AM,26.6,23.0,86,29.99,10.0,SSW,12.7,-,N/A,,Partly Cloudy,200,2013-03-18 14:20:00
7:58 AM,26.4,23.9,90,30.06,10.0,SSW,12.7,-,0.00,,Overcast,210,2013-03-18 14:58:00
8:06 AM,26.6,23.0,86,29.97,10.0,SSW,16.1,-,N/A,,Overcast,210,2013-03-18 15:06:00
8:58 AM,27.9,23.9,85,30.07,10.0,SSW,15.0,-,0.00,,Overcast,200,2013-03-18 15:58:00
9:18 AM,28.4,24.8,86,29.98,10.0,SSW,17.3,-,N/A,,Mostly Cloudy,200,2013-03-18 16:18:00
9:25 AM,30.2,24.8,80,29.98,10.0,SSW,19.6,-,N/A,,Partly Cloudy,210,2013-03-18 16:25:00
9:58 AM,32.5,25.2,74,30.04,10.0,SSW,17.3,28.8,0.00,Snow,Light Snow,200,2013-03-18 16:58:00
10:58 AM,34.2,26.4,73,30.04,10.0,SSW,21.9,31.1,0.00,Snow,Light Snow,210,2013-03-18 17:58:00
11:56 AM,39.2,24.8,56,29.97,10.0,SSW,21.9,29.9,N/A,,Mostly Cloudy,210,2013-03-18 18:56:00
11:58 AM,39.2,24.8,56,30.04,10.0,SW,26.5,31.1,0.00,,Mostly Cloudy,220,2013-03-18 18:58:00
12:09 PM,39.2,24.8,56,29.96,10.0,SSW,20.7,32.2,N/A,Rain,Light Rain,210,2013-03-18 19:09:00
12:20 PM,39.2,24.8,56,29.96,10.0,SW,26.5,31.1,N/A,,Mostly Cloudy,230,2013-03-18 19:20:00
12:27 PM,39.2,24.8,56,29.96,10.0,SW,25.3,32.2,N/A,Rain,Light Rain,230,2013-03-18 19:27:00
12:56 PM,39.2,23.0,52,29.95,10.0,WSW,21.9,32.2,N/A,,Mostly Cloudy,240,2013-03-18 19:56:00
12:58 PM,41.0,23.0,49,30.01,10.0,WSW,23.0,32.2,0.00,,Mostly Cloudy,250,2013-03-18 19:58:00
1:58 PM,44.2,23.7,44,30.00,10.0,WSW,21.9,35.7,N/A,,Mostly Cloudy,240,2013-03-18 20:58:00
2:01 PM,44.6,24.8,46,29.94,10.0,SW,24.2,35.7,N/A,Rain,Light Rain,230,2013-03-18 21:01:00
2:12 PM,44.6,23.0,43,29.94,10.0,WSW,24.2,33.4,N/A,,Scattered Clouds,240,2013-03-18 21:12:00
2:32 PM,35.6,32.0,87,29.96,1.8,West,27.6,41.4,N/A,Snow,Light Snow,260,2013-03-18 21:32:00
2:34 PM,35.6,32.0,87,29.96,1.2,West,23.0,41.4,N/A,Snow,Light Snow,260,2013-03-18 21:34:00
2:35 PM,33.8,32.0,93,29.96,1.0,WSW,20.7,41.4,N/A,Snow,Light Snow,250,2013-03-18 21:35:00
2:37 PM,33.8,32.0,93,29.96,0.8,West,15.0,41.4,N/A,Snow,Light Snow,260,2013-03-18 21:37:00
2:41 PM,35.6,30.2,81,29.95,1.0,West,6.9,-,N/A,Snow,Light Snow,260,2013-03-18 21:41:00
2:43 PM,35.6,30.2,81,29.95,1.5,West,8.1,-,N/A,Snow,Light Snow,260,2013-03-18 21:43:00
2:45 PM,35.6,30.2,81,29.95,1.8,WSW,10.4,-,N/A,Snow,Light Snow,250,2013-03-18 21:45:00
2:46 PM,35.6,30.2,81,29.95,3.0,WSW,10.4,-,N/A,Snow,Light Snow,250,2013-03-18 21:46:00
2:53 PM,35.6,32.0,87,29.95,4.0,WSW,21.9,32.2,N/A,Snow,Light Snow,240,2013-03-18 21:53:00
2:58 PM,35.2,30.9,84,30.01,4.0,WSW,16.1,32.2,0.01,Snow,Light Snow,240,2013-03-18 21:58:00
3:05 PM,35.6,32.0,87,29.94,4.0,WSW,8.1,-,N/A,Snow,Light Snow,250,2013-03-18 22:05:00
3:11 PM,37.4,32.0,81,29.94,7.0,WSW,8.1,-,N/A,,Mostly Cloudy,250,2013-03-18 22:11:00
3:58 PM,42.8,23.0,46,29.98,10.0,West,17.3,31.1,0.00,,Mostly Cloudy,270,2013-03-18 22:58:00
4:20 PM,44.6,19.4,37,29.93,10.0,WSW,21.9,26.5,N/A,,Mostly Cloudy,250,2013-03-18 23:20:00
4:30 PM,42.8,17.6,36,29.94,10.0,WNW,18.4,32.2,N/A,,Overcast,290,2013-03-18 23:30:00
4:31 PM,42.8,17.6,36,29.94,10.0,WNW,17.3,32.2,N/A,,Overcast,290,2013-03-18 23:31:00
4:58 PM,43.7,18.7,37,30.02,10.0,West,18.4,26.5,N/A,,Mostly Cloudy,280,2013-03-18 23:58:00
5:58 PM,43.0,13.8,31,30.03,10.0,West,18.4,25.3,N/A,,Partly Cloudy,270,2013-03-19 00:58:00
6:10 PM,42.8,14.0,31,29.97,10.0,NW,18.4,27.6,N/A,,Partly Cloudy,320,2013-03-19 01:10:00
6:11 PM,42.8,14.0,31,29.97,10.0,NNW,17.3,27.6,N/A,,Partly Cloudy,340,2013-03-19 01:11:00
6:12 PM,42.8,14.0,31,29.97,10.0,North,13.8,27.6,N/A,,Partly Cloudy,350,2013-03-19 01:12:00
6:13 PM,42.8,14.0,31,29.97,10.0,North,11.5,27.6,N/A,,Partly Cloudy,350,2013-03-19 01:13:00
6:58 PM,36.3,25.3,64,30.06,10.0,North,5.8,-,N/A,,Clear,10,2013-03-19 01:58:00
7:48 PM,32.0,24.8,75,30.01,10.0,South,5.8,-,N/A,,Clear,170,2013-03-19 02:48:00
7:56 PM,32.0,24.8,75,30.02,10.0,South,4.6,-,N/A,,Clear,190,2013-03-19 02:56:00
7:58 PM,32.7,24.8,73,30.10,10.0,South,3.5,-,0.00,,Clear,190,2013-03-19 02:58:00
8:16 PM,32.0,19.4,60,30.02,10.0,SSW,3.5,-,N/A,,Clear,200,2013-03-19 03:16:00
8:18 PM,32.0,19.4,60,30.03,10.0,SSW,4.6,-,N/A,,Clear,210,2013-03-19 03:18:00
8:23 PM,32.0,19.4,60,30.03,10.0,SSW,6.9,-,N/A,,Clear,210,2013-03-19 03:23:00
8:36 PM,32.0,19.4,60,30.03,10.0,SW,10.4,-,N/A,,Clear,220,2013-03-19 03:36:00
8:44 PM,32.0,21.2,64,30.04,10.0,SSW,9.2,-,N/A,,Clear,210,2013-03-19 03:44:00
8:53 PM,30.2,21.2,69,30.05,10.0,WNW,8.1,-,N/A,,Clear,300,2013-03-19 03:53:00
8:58 PM,29.5,20.5,69,30.13,10.0,NNW,4.6,-,0.00,,Clear,330,2013-03-19 03:58:00
9:39 PM,28.4,23.0,80,30.07,10.0,NW,5.8,-,N/A,,Clear,320,2013-03-19 04:39:00
9:58 PM,28.0,23.5,83,30.16,10.0,Variable,3.5,-,0.00,,Clear,0,2013-03-19 04:58:00
10:03 PM,26.6,21.2,80,30.09,10.0,SSW,4.6,-,N/A,,Clear,200,2013-03-19 05:03:00
10:40 PM,30.2,23.0,75,30.10,10.0,NNW,2.3,-,N/A,,Clear,340,2013-03-19 05:40:00
10:49 PM,26.6,23.0,86,30.11,10.0,SSE,4.6,-,N/A,,Clear,160,2013-03-19 05:49:00
10:58 PM,25.9,22.1,86,30.20,10.0,SSE,6.9,-,0.00,,Clear,160,2013-03-19 05:58:00
11:02 PM,24.8,21.2,86,30.12,10.0,South,4.6,-,N/A,,Clear,190,2013-03-19 06:02:00
11:12 PM,28.4,23.0,80,30.12,10.0,WSW,4.6,-,N/A,,Clear,250,2013-03-19 06:12:00
11:28 PM,28.4,23.0,80,30.12,10.0,WNW,2.3,-,N/A,,Clear,290,2013-03-19 06:28:00
11:39 PM,28.4,23.0,80,30.12,10.0,NNW,4.6,-,N/A,,Clear,330,2013-03-19 06:39:00
11:58 PM,25.0,21.7,87,30.21,10.0,South,4.6,-,0.00,,Clear,180,2013-03-19 06:58:00